Regional Weather Roundup
Issued by NWS

Home | Current Version | Previous Version | Text Only | Print | Product List | Glossary On
Versions: 1 2 3 4 5 6 7 8 9 10 11 12 13 14 15 16 17 18 19 20 21 22 23 24 25 26 27 28 29 30 31 32 33 34 35 36 37 38 39 40 41 42 43 44 45 46 47 48 49 50
000
ASUS43 KMKX 270500
RWRWI

WISCONSIN REGIONAL WEATHER ROUNDUP
NATIONAL WEATHER SERVICE MILWAUKEE/SULLIVAN WI
1100 PM CST FRI DEC 26 2014

NOTE: "FAIR" INDICATES FEW OR NO CLOUDS BELOW 12,000 FEET WITH NO
SIGNIFICANT WEATHER AND/OR OBSTRUCTIONS TO VISIBILITY.

WIZ001-002-006>008-014>016-023>028-270600-
NORTHWEST WISCONSIN

CITY           SKY/WX    TMP DP  RH WIND       PRES   REMARKS
SUPERIOR ARPT  CLOUDY    28  20  71 N7        30.12R WCI  21
ASHLAND        LGT SNOW  29  27  92 NW3       30.09S FOG
HAYWARD        LGT SNOW  28  25  88 N6        30.06F FOG     WCI  22
SIREN          LGT SNOW  28  26  94 N6        30.08F WCI  21
CUMBERLAND     LGT SNOW  28  27  93 N9        30.03F WCI  20
RICE LAKE      CLOUDY    29  27  90 N8        30.05S WCI  21
CHETEK         LGT SNOW  29  27  92 N5        30.03F WCI  24
LADYSMITH      CLOUDY    30  28  92 N9        30.04F WCI  22
EAU CLAIRE     LGT SNOW  31  28  89 N7        30.01F FOG     WCI  24
MENOMONIE      LGT SNOW  32  29  90 N7        30.03S WCI  25
NEW RICHMOND   CLOUDY    29  28  95 N9        30.06R WCI  20
OSCEOLA        LGT SNOW  29  29 100 N7        30.10S WCI  21
$$

WIZ003>005-009-010-017-018-270600-
NORTH CENTRAL WISCONSIN

CITY           SKY/WX    TMP DP  RH WIND       PRES   REMARKS
MANITOWISH WTR LGT SNOW  28  28 100 N3        30.02S
ARBOR VITAE    LGT SNOW  32  30  94 CALM      30.01F
WOODRUFF       LGT SNOW  32  30  94 CALM      30.01F
RHINELANDER    LGT SNOW  29  28  96 NE3       30.01S FOG
EAGLE RIVER    LGT SNOW  29  29 100 CALM      30.01S
LAND O LAKES   LGT SNOW  30  29  98 CALM      30.03S
PHILLIPS       CLOUDY    28  27  95 N7        30.01S WCI  21
TOMAHAWK       LGT SNOW  30  28  94 CALM      30.01F
MEDFORD        LGT SNOW  31  29  95 NE8       29.98F WCI  23
MERRILL        LGT SNOW  32  32 100 NE3       30.00F
$$

WIZ029-030-035-036-043>047-270600-
CENTRAL WISCONSIN

CITY           SKY/WX    TMP DP  RH WIND       PRES   REMARKS
WAUSAU         LGT SNOW  33  31  92 E3        29.98F FOG
MOSINEE        LGT SNOW  32  32 100 NE3       30.00F
MARSHFIELD     LGT SNOW  33  31  92 E6        29.98F FOG     WCI  28
STEVENS POINT  MIX PCPN  31  31  99 NE5       30.01S WCI  26
WAUPACA        CLOUDY    34  33  96 N3        30.01F FOG
WAUTOMA        NOT AVBL
WISC RAPIDS    CLOUDY    33  30  88 NE6       30.00F WCI  28
CAMP DOUGLAS   NOT AVBL
$$

WIZ011>013-019>022-031-037>040-048>050-270600-
NORTHEAST WISCONSIN

CITY           SKY/WX    TMP DP  RH WIND       PRES   REMARKS
ANTIGO         LGT SNOW  31  31 100 E5        29.99F WCI  26
SHAWANO        FOG       35  33  95 NE3       30.03F VSB 1/4
OCONTO         CLOUDY    34  34  99 CALM      30.04R
STURGEON BAY   CLOUDY    36  34  93 NE5       30.04S WCI  32
GREEN BAY      CLOUDY    35  33  92 NE8       30.02S FOG     WCI  29
MANITOWOC      NOT AVBL
APPLETON       CLOUDY    34  34 100 NE6       30.01F FOG     WCI  29
CLINTONVILLE   FOG       32  32 100 NE6       30.01F VSB 1/4 WCI  26
OSHKOSH        CLOUDY    35  32  88 NE3       30.01S FOG
$$

WIZ032>034-041-042-053>061-270600-
SOUTHWEST WISCONSIN

CITY           SKY/WX    TMP DP  RH WIND       PRES   REMARKS
LA CROSSE      CLOUDY    34  32  92 NW10      29.97F FOG     WCI  26
SPARTA         CLOUDY    33  33  99 CALM      29.99F FOG
VIROQUA        MOCLDY    34  34 100 NE7       29.94F WCI  27
BOSCOBEL       CLOUDY    32  29  88 NE3       29.97F
PRAIRIE DU CHI CLOUDY    32  31  94 CALM      29.97F
PLATTEVILLE    CLOUDY    38  35  89 E9        29.97F WCI  31
$$

WIZ056-057-062-063-064-067-068-270600-
SOUTH CENTRAL WISCONSIN

CITY           SKY/WX    TMP DP  RH WIND       PRES   REMARKS
REEDSBURG      PTCLDY    30  30  99 CALM      29.97F
BARABOO/DELLS  PTCLDY    32  31  96 NE6       29.97F WCI  26
LONE ROCK      NOT AVBL
MINERAL POINT  CLOUDY    39  36  87 SE3       29.97S
MADISON        CLOUDY    34  32  92 CALM      29.98F
MIDDLETON      CLOUDY    34  33  98 W3        29.98F
WATERTOWN      PTCLDY    34  34 100 NE5       29.98F WCI  29
MONROE         CLOUDY    41  36  81 SE7       29.97S
JANESVILLE     CLOUDY    41  37  87 SE5       29.98F
$$

WIZ051-052-058>065-066-070>072-270600-
SOUTHEAST WISCONSIN

CITY           SKY/WX    TMP DP  RH WIND       PRES   REMARKS
MILWAUKEE      MOCLDY    42  37  82 S5        30.01S
WAUKESHA       CLOUDY    37  36  93 S5        30.01R WCI  34
MILWAUKEE/TIMM MOCLDY    39  36  87 S3        30.01S
RACINE         CLOUDY    42  37  82 S3        30.03S
BURLINGTON     CLOUDY    35  34  96 CALM      30.00F
KENOSHA        CLOUDY    44  39  82 S5        30.02S
FOND DU LAC    MOCLDY    34  31  88 CALM      30.01S FOG
SHEBOYGAN      CLOUDY    35  33  92 N3        30.01S
WEST BEND      CLOUDY    34  32  93 W3        30.01R
JUNEAU         CLOUDY    35  33  94 E7        30.00S WCI  29
$$

LSZ147-162-270600-
LAKE SUPERIOR

STATION/POSITION TIME  TEMP    WIND        PRES    WAVE
                       AIR SEA DIR/SP/G            HT/PER
                 (UTC) (F)     (DEG/KT/KT) (MB)    (FT/S)
DEVILS ISLAND    0400   31     350/ 16/ 17 1019.9F
PORT WING        0400   31     360/ 12/ 14 1019.6
SAXON HARBOR     0400   33      CALM  /  3 1018.6F
$$

LMZ867-665-643>646-270600-
LAKE MICHIGAN

STATION/POSITION TIME  TEMP    WIND        PRES    WAVE
                       AIR SEA DIR/SP/G            HT/PER
                 (UTC) (F)     (DEG/KT/KT) (MB)    (FT/S)
CHAMBERS ISLAND  0400   35      20/  6/  7 1017.3S
NORTHPORT PIER   0400   35     360/  1/  2 1017.3S
SISTER BAY       0413             CALM       N/A
ALGOMA LAKESHORE 0345           50/  6/  8   N/A
KEWAUNEE LAKESHO 0400   36      30/  4/  7 1015.7F
SHEBOYGAN LAKESH 0400   36 39  350/  6/  6 1017.2R
PORT WASHINGTON  0440   38     270/  1/  2 1017.3S
MILWAUKEE LAKESH 0400   39     200/  1/  1   N/A
KENOSHA   LAKESH 0400   43     190/  7/  9 1016.6S
$$

TC  - TEMPERATURE IN CELSIUS
VSB - VISIBILITY IN STATUTE MILES
WCI - WIND CHILL INDEX
HX  - HEAT INDEX




USA.gov is the U.S. government's official web portal to all federal, state and local government web resources and services.